Location: Lombard
(41.8800°N, 88.0080°W)
Time: 13:46:26
(UTC-05:00)

NOAA 15 - Visible Passes

Search period start: 16 May 2022 00:00
Search period end: 26 May 2022 00:00
Orbit: 797 x 812 km, 98.6° (Epoch: 16 May)

Date Brightness Start Highest point End Pass type
(mag) Time Alt. Az. Time Alt. Az. Time Alt. Az.
16 May 6.3 20:31:01 10° SSW 20:35:44 34° W 20:40:31 10° NNW visible
18 May 7.4 21:23:34 10° WSW 21:25:29 12° W 21:27:25 10° WNW visible
19 May 7.0 20:56:02 10° SW 20:59:56 21° W 21:03:51 10° NW visible
22 May 7.4 21:22:06 10° WSW 21:24:12 12° W 21:26:20 10° WNW visible
23 May 7.0 20:54:41 10° SW 20:58:39 22° W 21:02:38 10° NW visible
